| time (UTC) | temp F | wind direction | speed knots | gust knots | rain 1hr in | rain 24hr in | rain mn in | humidity % | barometer mb |
| 20260505194748 | 82 | 41 | 8.7 | 19.1 | 0.00 | 0.00 | 0.00 | 34 | 1008.2 |
| 20260505194516 | 82 | 41 | 8.7 | 19.1 | 0.00 | 0.00 | 0.00 | 34 | 1008.3 |
| 20260505193952 | 82 | 45 | 7.8 | 16.5 | 0.00 | 0.00 | 0.00 | 35 | 1008.4 |
| 20260505193222 | 82 | 74 | 8.7 | 20.0 | 0.00 | 0.00 | 0.00 | 35 | 1008.3 |
| 20260505192723 | 81 | 44 | 9.6 | 20.0 | 0.00 | 0.00 | 0.00 | 35 | 1008.5 |
| 20260505192225 | 81 | 101 | 7.8 | 17.4 | 0.00 | 0.00 | 0.00 | 37 | 1008.5 |
| 20260505191657 | 81 | 25 | 8.7 | 20.9 | 0.00 | 0.00 | 0.00 | 36 | 1008.6 |
| 20260505191137 | 81 | 23 | 7.8 | 20.9 | 0.00 | 0.00 | 0.00 | 36 | 1008.6 |
| 20260505190637 | 81 | 83 | 7.8 | 15.6 | 0.00 | 0.00 | 0.00 | 38 | 1008.7 |
| 20260505190410 | 81 | 21 | 8.7 | 16.5 | 0.00 | 0.00 | 0.00 | 39 | 1008.8 |
| 20260505185638 | 81 | 60 | 8.7 | 21.7 | 0.00 | 0.00 | 0.00 | 38 | 1008.8 |
| 20260505185140 | 81 | 86 | 7.8 | 21.7 | 0.00 | 0.00 | 0.00 | 37 | 1008.9 |
| 20260505184616 | 81 | 82 | 7.0 | 14.8 | 0.00 | 0.00 | 0.00 | 38 | 1008.9 |
| 20260505184047 | 82 | 62 | 7.0 | 12.2 | 0.00 | 0.00 | 0.00 | 39 | 1009.0 |
| 20260505183532 | 82 | 72 | 7.0 | 17.4 | 0.00 | 0.00 | 0.00 | 40 | 1009.0 |
| 20260505183248 | 82 | 58 | 6.1 | 17.4 | 0.00 | 0.00 | 0.00 | 40 | 1009.2 |
| 20260505182744 | 81 | 51 | 7.8 | 15.6 | 0.00 | 0.00 | 0.00 | 40 | 1009.3 |
| 20260505182016 | 81 | 40 | 7.0 | 15.6 | 0.00 | 0.00 | 0.00 | 37 | 1009.3 |
| 20260505181508 | 82 | 46 | 7.0 | 15.6 | 0.00 | 0.00 | 0.00 | 40 | 1009.5 |
| 20260505180952 | 82 | 19 | 6.1 | 13.0 | 0.00 | 0.00 | 0.00 | 38 | 1009.5 |
| 20260505180453 | 82 | 63 | 5.2 | 13.0 | 0.00 | 0.00 | 0.00 | 39 | 1009.5 |
| 20260505175930 | 81 | 39 | 6.1 | 13.0 | 0.00 | 0.00 | 0.00 | 42 | 1009.5 |
| 20260505175426 | 81 | 56 | 6.1 | 14.8 | 0.00 | 0.00 | 0.00 | 42 | 1009.5 |
| 20260505174927 | 81 | 44 | 6.1 | 14.8 | 0.00 | 0.00 | 0.00 | 40 | 1009.6 |
| 20260505174424 | 81 | 49 | 6.1 | 13.0 | 0.00 | 0.00 | 0.00 | 41 | 1009.5 |
| 20260505174201 | 81 | 54 | 5.2 | 13.9 | 0.00 | 0.00 | 0.00 | 40 | 1009.6 |
| 20260505173427 | 81 | 5 | 5.2 | 13.9 | 0.00 | 0.00 | 0.00 | 39 | 1009.6 |
| 20260505172920 | 81 | 63 | 6.1 | 15.6 | 0.00 | 0.00 | 0.00 | 44 | 1009.7 |
| 20260505172417 | 81 | 85 | 5.2 | 15.6 | 0.00 | 0.00 | 0.00 | 43 | 1009.8 |
| 20260505171918 | 81 | 66 | 3.5 | 11.3 | 0.00 | 0.00 | 0.00 | 44 | 1009.8 |
| 20260505171349 | 81 | 60 | 3.5 | 11.3 | 0.00 | 0.00 | 0.00 | 45 | 1009.9 |
| 20260505170828 | 81 | 49 | 3.5 | 11.3 | 0.00 | 0.00 | 0.00 | 42 | 1010.0 |
| 20260505170558 | 81 | 44 | 2.6 | 9.6 | 0.00 | 0.00 | 0.00 | 45 | 1009.9 |
| 20260505165820 | 81 | 48 | 2.6 | 8.7 | 0.00 | 0.00 | 0.00 | 46 | 1010.0 |
| 20260505165320 | 81 | 318 | 2.6 | 7.8 | 0.00 | 0.00 | 0.00 | 42 | 1010.0 |
| 20260505164805 | 81 | 30 | 2.6 | 7.8 | 0.00 | 0.00 | 0.00 | 43 | 1010.0 |
| 20260505164302 | 81 | 88 | 3.5 | 11.3 | 0.00 | 0.00 | 0.00 | 42 | 1010.0 |
| 20260505163800 | 80 | 89 | 5.2 | 11.3 | 0.00 | 0.00 | 0.00 | 42 | 1010.1 |
| 20260505163514 | 80 | 89 | 5.2 | 12.2 | 0.00 | 0.00 | 0.00 | 41 | 1010.1 |
| 20260505163356 | 80 | 62 | 4.3 | 12.2 | 0.00 | 0.00 | 0.00 | 41 | 1010.2 |
| 20260505162232 | 80 | 7 | 3.5 | 9.6 | 0.00 | 0.00 | 0.00 | 42 | 1010.2 |
| 20260505161703 | 79 | 63 | 4.3 | 11.3 | 0.00 | 0.00 | 0.00 | 46 | 1010.3 |
| 20260505161204 | 80 | 63 | 3.5 | 11.3 | 0.00 | 0.00 | 0.00 | 42 | 1010.3 |
| 20260505160703 | 79 | 79 | 5.2 | 13.9 | 0.00 | 0.00 | 0.00 | 44 | 1010.4 |
| 20260505160200 | 79 | 80 | 5.2 | 13.9 | 0.00 | 0.00 | 0.00 | 42 | 1010.4 |
| 20260505153113 | 77 | 70 | 3.5 | 8.7 | 0.00 | 0.00 | 0.00 | 45 | 1010.7 |
| 20260505152614 | 77 | 63 | 3.5 | 8.7 | 0.00 | 0.00 | 0.00 | 48 | 1010.7 |
| 20260505152114 | 77 | 78 | 2.6 | 7.8 | 0.00 | 0.00 | 0.00 | 48 | 1010.8 |
| 20260505151611 | 76 | 65 | 3.5 | 9.6 | 0.00 | 0.00 | 0.00 | 47 | 1010.8 |
| 20260505151112 | 76 | 83 | 4.3 | 9.6 | 0.00 | 0.00 | 0.00 | 46 | 1010.8 |
| 20260505150613 | 76 | 79 | 2.6 | 7.8 | 0.00 | 0.00 | 0.00 | 47 | 1010.7 |
| 20260505150326 | 75 | 66 | 2.6 | 7.0 | 0.00 | 0.00 | 0.00 | 50 | 1010.7 |
| 20260505130251 | 66 | 24 | 3.5 | 8.7 | 0.00 | 0.00 | 0.00 | 61 | 1011.6 |
| 20260505124731 | 65 | 86 | 3.5 | 8.7 | 0.00 | 0.00 | 0.00 | 64 | 1011.3 |
| 20260505124228 | 65 | 84 | 4.3 | 10.4 | 0.00 | 0.00 | 0.00 | 63 | 1011.2 |
| 20260505123930 | 65 | 70 | 3.5 | 10.4 | 0.00 | 0.00 | 0.00 | 62 | 1011.2 |
| 20260505123144 | 65 | 82 | 2.6 | 7.0 | 0.00 | 0.00 | 0.00 | 64 | 1011.1 |
| 20260505122850 | 64 | 68 | 2.6 | 7.0 | 0.00 | 0.00 | 0.00 | 64 | 1011.2 |
| 20260505122115 | 64 | 44 | 2.6 | 7.0 | 0.00 | 0.00 | 0.00 | 64 | 1011.2 |
| 20260505121615 | 64 | 60 | 2.6 | 7.0 | 0.00 | 0.00 | 0.00 | 64 | 1011.2 |
| 20260505121112 | 63 | 70 | 2.6 | 6.1 | 0.00 | 0.00 | 0.00 | 67 | 1011.3 |
| 20260505120606 | 63 | 41 | 2.6 | 6.1 | 0.00 | 0.00 | 0.00 | 66 | 1011.3 |
| 20260505120328 | 62 | 88 | 1.7 | 5.2 | 0.00 | 0.00 | 0.00 | 67 | 1011.3 |
| 20260505115527 | 62 | 84 | 0.9 | 2.6 | 0.00 | 0.00 | 0.00 | 68 | 1011.3 |
| 20260505115012 | 61 | 70 | 0.9 | 2.6 | 0.00 | 0.00 | 0.00 | 68 | 1011.2 |
| 20260505114510 | 61 | 87 | 0.9 | 3.5 | 0.00 | 0.00 | 0.00 | 69 | 1011.3 |
| 20260505113943 | 60 | 93 | 0.9 | 3.5 | 0.00 | 0.00 | 0.00 | 69 | 1011.2 |
| 20260505113442 | 60 | 86 | 0.9 | 1.7 | 0.00 | 0.00 | 0.00 | 70 | 1011.3 |
| 20260505112924 | 59 | 86 | 0.0 | 1.7 | 0.00 | 0.00 | 0.00 | 71 | 1011.1 |
| 20260505112405 | 58 | 86 | 0.0 | 0.9 | 0.00 | 0.00 | 0.00 | 71 | 1011.2 |
| 20260505111905 | 58 | 86 | 0.0 | 0.0 | 0.00 | 0.00 | 0.00 | 75 | 1011.1 |
| 20260505111353 | 57 | 86 | 0.0 | 0.0 | 0.00 | 0.00 | 0.00 | 76 | 1011.1 |
| 20260505110850 | 56 | 86 | 0.0 | 0.0 | 0.00 | 0.00 | 0.00 | 77 | 1011.3 |
| 20260505110351 | 55 | 86 | 0.0 | 0.0 | 0.00 | 0.00 | 0.00 | 77 | 1011.1 |
| 20260505110124 | 54 | 86 | 0.0 | 0.0 | 0.00 | 0.00 | 0.00 | 77 | 1011.2 |
| 20260505101707 | 54 | 86 | 0.0 | 0.0 | 0.00 | 0.00 | 0.00 | 77 | 1011.1 |
| 20260505101142 | 55 | 86 | 0.0 | 0.0 | 0.00 | 0.00 | 0.00 | 76 | 1011.1 |
| 20260505100613 | 55 | 86 | 0.0 | 0.0 | 0.00 | 0.00 | 0.00 | 75 | 1011.1 |
| 20260505100110 | 55 | 86 | 0.0 | 0.0 | 0.00 | 0.00 | 0.00 | 75 | 1011.3 |
| 20260505095553 | 55 | 86 | 0.0 | 0.0 | 0.00 | 0.00 | 0.00 | 75 | 1011.3 |
| 20260505095043 | 56 | 86 | 0.0 | 0.0 | 0.00 | 0.00 | 0.00 | 74 | 1011.2 |
| 20260505094542 | 56 | 86 | 0.0 | 0.0 | 0.00 | 0.00 | 0.00 | 73 | 1011.3 |
| 20260505094040 | 57 | 86 | 0.0 | 0.0 | 0.00 | 0.00 | 0.00 | 72 | 1011.2 |
| 20260505093514 | 58 | 86 | 0.9 | 1.7 | 0.00 | 0.00 | 0.00 | 71 | 1011.1 |
| 20260505093218 | 58 | 86 | 0.9 | 1.7 | 0.00 | 0.00 | 0.00 | 70 | 1010.9 |
| 20260505092418 | 58 | 84 | 0.9 | 1.7 | 0.00 | 0.00 | 0.00 | 70 | 1010.5 |
| 20260505091914 | 58 | 76 | 0.9 | 2.6 | 0.00 | 0.00 | 0.00 | 70 | 1010.4 |
| 20260505091341 | 58 | 77 | 0.9 | 2.6 | 0.00 | 0.00 | 0.00 | 69 | 1010.4 |
| 20260505090844 | 58 | 77 | 0.9 | 2.6 | 0.00 | 0.00 | 0.00 | 70 | 1010.3 |
| 20260505090335 | 58 | 69 | 0.9 | 3.5 | 0.00 | 0.00 | 0.00 | 70 | 1010.4 |
| 20260505090101 | 58 | 68 | 0.9 | 3.5 | 0.00 | 0.00 | 0.00 | 70 | 1010.2 |
| 20260505085322 | 58 | 76 | 0.0 | 1.7 | 0.00 | 0.00 | 0.00 | 71 | 1010.3 |
| 20260505084818 | 58 | 75 | 0.9 | 1.7 | 0.00 | 0.00 | 0.00 | 71 | 1010.2 |
| 20260505084316 | 58 | 76 | 0.9 | 1.7 | 0.00 | 0.00 | 0.00 | 70 | 1010.2 |
| 20260505083750 | 58 | 75 | 0.9 | 4.3 | 0.00 | 0.00 | 0.00 | 70 | 1010.2 |
| 20260505083224 | 58 | 73 | 1.7 | 5.2 | 0.00 | 0.00 | 0.00 | 70 | 1010.2 |
| 20260505082925 | 58 | 76 | 1.7 | 5.2 | 0.00 | 0.00 | 0.00 | 71 | 1010.3 |
| 20260505082152 | 58 | 79 | 1.7 | 4.3 | 0.00 | 0.00 | 0.00 | 71 | 1010.3 |
| 20260505081649 | 58 | 90 | 1.7 | 5.2 | 0.00 | 0.00 | 0.00 | 71 | 1010.3 |
| 20260505081148 | 58 | 80 | 1.7 | 5.2 | 0.00 | 0.00 | 0.00 | 71 | 1010.3 |
| 20260505080647 | 58 | 77 | 1.7 | 3.5 | 0.00 | 0.00 | 0.00 | 72 | 1010.3 |
| 20260505080149 | 57 | 88 | 1.7 | 2.6 | 0.00 | 0.00 | 0.00 | 72 | 1010.5 |
| 20260505075648 | 57 | 80 | 0.9 | 3.5 | 0.00 | 0.00 | 0.00 | 72 | 1010.5 |
| 20260505075146 | 57 | 91 | 0.9 | 3.5 | 0.00 | 0.00 | 0.00 | 71 | 1010.4 |
| 20260505074639 | 57 | 82 | 1.7 | 2.6 | 0.00 | 0.00 | 0.00 | 70 | 1010.5 |
| 20260505074126 | 57 | 69 | 0.9 | 2.6 | 0.00 | 0.00 | 0.00 | 69 | 1010.4 |
| 20260505073619 | 57 | 74 | 0.9 | 2.6 | 0.00 | 0.00 | 0.00 | 70 | 1010.3 |
| 20260505073116 | 56 | 82 | 0.0 | 1.7 | 0.00 | 0.00 | 0.00 | 70 | 1010.3 |
| 20260505072546 | 57 | 82 | 0.0 | 0.0 | 0.00 | 0.00 | 0.00 | 70 | 1010.3 |
| 20260505072043 | 57 | 82 | 0.0 | 0.0 | 0.00 | 0.00 | 0.00 | 69 | 1010.4 |
| 20260505071514 | 57 | 82 | 0.0 | 1.7 | 0.00 | 0.00 | 0.00 | 68 | 1010.4 |
| 20260505071240 | 58 | 82 | 0.0 | 1.7 | 0.00 | 0.00 | 0.00 | 68 | 1010.3 |
| 20260505071117 | 58 | 82 | 0.9 | 1.7 | 0.00 | 0.00 | 0.00 | 68 | 1010.3 |
| 20260505070006 | 58 | 82 | 0.0 | 0.0 | 0.00 | 0.00 | 0.00 | 68 | 1010.3 |
| 20260505065504 | 58 | 82 | 0.0 | 0.0 | 0.00 | 0.00 | 0.00 | 67 | 1010.3 |
| 20260505065004 | 58 | 82 | 0.9 | 1.7 | 0.00 | 0.00 | 0.00 | 67 | 1010.2 |
| 20260505064501 | 58 | 82 | 0.9 | 1.7 | 0.00 | 0.00 | 0.00 | 67 | 1010.3 |
| 20260505063951 | 58 | 82 | 0.9 | 2.6 | 0.00 | 0.00 | 0.00 | 67 | 1010.3 |
| 20260505063443 | 59 | 82 | 1.7 | 2.6 | 0.00 | 0.00 | 0.00 | 66 | 1010.3 |
| 20260505062942 | 59 | 92 | 1.7 | 5.2 | 0.00 | 0.00 | 0.00 | 66 | 1010.3 |
| 20260505062413 | 59 | 63 | 1.7 | 5.2 | 0.00 | 0.00 | 0.00 | 66 | 1010.4 |
| 20260505061912 | 59 | 75 | 2.6 | 5.2 | 0.00 | 0.00 | 0.00 | 66 | 1010.4 |
| 20260505061631 | 59 | 79 | 2.6 | 5.2 | 0.00 | 0.00 | 0.00 | 65 | 1010.4 |
| 20260505060901 | 59 | 61 | 1.7 | 5.2 | 0.00 | 0.00 | 0.00 | 65 | 1010.3 |
| 20260505060336 | 59 | 40 | 2.6 | 4.3 | 0.00 | 0.00 | 0.00 | 65 | 1010.2 |
| 20260505055834 | 59 | 66 | 1.7 | 4.3 | 0.00 | 0.00 | 0.00 | 66 | 1010.3 |
| 20260505055321 | 59 | 58 | 1.7 | 3.5 | 0.00 | 0.00 | 0.00 | 66 | 1010.3 |
| 20260505054818 | 59 | 71 | 1.7 | 6.1 | 0.00 | 0.00 | 0.00 | 66 | 1010.2 |
| 20260505054254 | 59 | 75 | 1.7 | 6.1 | 0.00 | 0.00 | 0.00 | 66 | 1010.3 |
| 20260505054000 | 59 | 63 | 1.7 | 3.5 | 0.00 | 0.00 | 0.00 | 66 | 1010.3 |
| 20260505053205 | 59 | 76 | 1.7 | 3.5 | 0.00 | 0.00 | 0.00 | 66 | 1010.4 |
| 20260505052640 | 59 | 51 | 1.7 | 4.3 | 0.00 | 0.00 | 0.00 | 66 | 1010.4 |
| 20260505052406 | 59 | 58 | 1.7 | 4.3 | 0.00 | 0.00 | 0.00 | 66 | 1010.4 |
| 20260505051635 | 59 | 57 | 1.7 | 4.3 | 0.00 | 0.00 | 0.00 | 66 | 1010.4 |
| 20260505051357 | 59 | 33 | 2.6 | 6.1 | 0.00 | 0.00 | 0.00 | 65 | 1010.4 |
| 20260505050829 | 59 | 65 | 1.7 | 6.1 | 0.00 | 0.00 | 0.00 | 65 | 1010.6 |
| 20260505041417 | 60 | 37 | 1.7 | 2.6 | 0.00 | 0.00 | 0.00 | 61 | 1010.5 |
| 20260505041134 | 60 | 75 | 0.9 | 3.5 | 0.00 | 0.00 | 0.00 | 60 | 1010.5 |
| 20260505040402 | 60 | 60 | 0.9 | 2.6 | 0.00 | 0.00 | 0.00 | 60 | 1010.4 |
| 20260505035845 | 60 | 57 | 0.9 | 2.6 | 0.00 | 0.00 | 0.00 | 60 | 1010.3 |
| 20260505035341 | 60 | 22 | 0.9 | 3.5 | 0.00 | 0.00 | 0.00 | 59 | 1010.5 |
| 20260505034806 | 60 | 53 | 0.9 | 3.5 | 0.00 | 0.00 | 0.00 | 58 | 1010.5 |
| 20260505034308 | 60 | 51 | 0.9 | 3.5 | 0.00 | 0.00 | 0.00 | 58 | 1010.4 |
| 20260505034037 | 60 | 82 | 0.9 | 3.5 | 0.00 | 0.00 | 0.00 | 58 | 1010.5 |
| 20260505033308 | 61 | 62 | 1.7 | 3.5 | 0.00 | 0.00 | 0.00 | 57 | 1010.5 |
| 20260505032739 | 61 | 55 | 0.9 | 3.5 | 0.00 | 0.00 | 0.00 | 57 | 1010.5 |
| 20260505032235 | 61 | 59 | 0.9 | 3.5 | 0.00 | 0.00 | 0.00 | 57 | 1010.5 |
| 20260505031708 | 61 | 76 | 0.9 | 3.5 | 0.00 | 0.00 | 0.00 | 56 | 1010.6 |
| 20260505031138 | 61 | 79 | 0.9 | 2.6 | 0.00 | 0.00 | 0.00 | 55 | 1010.7 |
| 20260505030843 | 61 | 75 | 1.7 | 5.2 | 0.00 | 0.00 | 0.00 | 54 | 1010.6 |
| 20260505030043 | 62 | 82 | 1.7 | 5.2 | 0.00 | 0.00 | 0.00 | 54 | 1010.6 |
| 20260505025544 | 61 | 69 | 0.9 | 4.3 | 0.00 | 0.00 | 0.00 | 54 | 1010.8 |
| 20260505025019 | 62 | 62 | 1.7 | 3.5 | 0.00 | 0.00 | 0.00 | 53 | 1010.8 |
| 20260505024511 | 62 | 70 | 0.9 | 3.5 | 0.00 | 0.00 | 0.00 | 52 | 1010.8 |
| 20260505024011 | 62 | 62 | 0.9 | 1.7 | 0.00 | 0.00 | 0.00 | 52 | 1010.9 |
| 20260505023443 | 62 | 91 | 0.0 | 1.7 | 0.00 | 0.00 | 0.00 | 51 | 1010.8 |
| 20260505023420 | 62 | 91 | 0.9 | 1.7 | 0.00 | 0.00 | 0.00 | 51 | 1010.8 |
| 20260505022421 | 63 | 91 | 0.9 | 1.7 | 0.00 | 0.00 | 0.00 | 50 | 1010.8 |
| 20260505021858 | 63 | 88 | 0.9 | 2.6 | 0.00 | 0.00 | 0.00 | 49 | 1010.8 |
| 20260505021336 | 63 | 82 | 1.7 | 2.6 | 0.00 | 0.00 | 0.00 | 49 | 1010.8 |
| 20260505020826 | 63 | 44 | 0.9 | 2.6 | 0.00 | 0.00 | 0.00 | 50 | 1010.8 |
| 20260505020305 | 63 | 50 | 0.9 | 4.3 | 0.00 | 0.00 | 0.00 | 49 | 1010.9 |
| 20260505015806 | 63 | 35 | 0.9 | 4.3 | 0.00 | 0.00 | 0.00 | 50 | 1010.9 |
| 20260505015245 | 63 | 64 | 0.9 | 3.5 | 0.00 | 0.00 | 0.00 | 49 | 1010.9 |
| 20260505014747 | 63 | 76 | 0.9 | 3.5 | 0.00 | 0.00 | 0.00 | 49 | 1010.8 |
| 20260505014246 | 63 | 86 | 0.9 | 1.7 | 0.00 | 0.00 | 0.00 | 49 | 1010.6 |
| 20260505014016 | 62 | 86 | 0.9 | 1.7 | 0.00 | 0.00 | 0.00 | 49 | 1010.7 |
| 20260505013515 | 62 | 86 | 0.0 | 1.7 | 0.00 | 0.00 | 0.00 | 49 | 1010.7 |
| 20260505012727 | 62 | 86 | 0.0 | 0.0 | 0.00 | 0.00 | 0.00 | 49 | 1010.7 |
| 20260505012501 | 63 | 86 | 0.0 | 0.0 | 0.00 | 0.00 | 0.00 | 49 | 1010.6 |
| 20260505011944 | 63 | 86 | 0.0 | 0.0 | 0.00 | 0.00 | 0.00 | 48 | 1010.6 |
| 20260505011211 | 63 | 86 | 0.0 | 0.9 | 0.00 | 0.00 | 0.00 | 48 | 1010.5 |
| 20260505010710 | 63 | 86 | 0.0 | 0.9 | 0.00 | 0.00 | 0.00 | 48 | 1010.5 |
| 20260505010155 | 64 | 86 | 0.0 | 1.7 | 0.00 | 0.00 | 0.00 | 47 | 1010.2 |
| 20260505005901 | 64 | 86 | 0.0 | 1.7 | 0.00 | 0.00 | 0.00 | 46 | 1010.2 |
| 20260505005111 | 64 | 78 | 0.0 | 1.7 | 0.00 | 0.00 | 0.00 | 46 | 1010.2 |
| 20260505004841 | 64 | 78 | 0.0 | 1.7 | 0.00 | 0.00 | 0.00 | 46 | 1010.1 |
| 20260505004047 | 64 | 78 | 0.0 | 3.5 | 0.00 | 0.00 | 0.00 | 46 | 1010.2 |
| 20260505003548 | 65 | 70 | 0.9 | 3.5 | 0.00 | 0.00 | 0.00 | 45 | 1010.1 |
| 20260505003021 | 65 | 80 | 0.9 | 1.7 | 0.00 | 0.00 | 0.00 | 45 | 1010.1 |
| 20260505002459 | 65 | 81 | 0.9 | 2.6 | 0.00 | 0.00 | 0.00 | 45 | 1010.0 |
| 20260505001935 | 65 | 81 | 0.0 | 1.7 | 0.00 | 0.00 | 0.00 | 45 | 1010.0 |
| 20260505001412 | 65 | 61 | 0.0 | 0.9 | 0.00 | 0.00 | 0.00 | 45 | 1010.1 |
| 20260505000851 | 66 | 61 | 0.9 | 3.5 | 0.00 | 0.00 | 0.00 | 44 | 1009.9 |
| 20260505000333 | 66 | 62 | 0.9 | 3.5 | 0.00 | 0.00 | 0.00 | 44 | 1009.9 |
| 20260504235807 | 66 | 70 | 0.9 | 3.5 | 0.00 | 0.00 | 0.00 | 43 | 1009.9 |
| 20260504235245 | 67 | 81 | 0.9 | 3.5 | 0.00 | 0.00 | 0.00 | 43 | 1009.9 |
| 20260504234746 | 67 | 77 | 0.9 | 3.5 | 0.00 | 0.00 | 0.00 | 43 | 1009.8 |
| 20260504234246 | 67 | 77 | 1.7 | 6.1 | 0.00 | 0.00 | 0.00 | 42 | 1009.6 |
| 20260504233729 | 68 | 56 | 2.6 | 6.1 | 0.00 | 0.00 | 0.00 | 42 | 1009.6 |
| 20260504233230 | 68 | 43 | 2.6 | 6.1 | 0.00 | 0.00 | 0.00 | 41 | 1009.5 |
| 20260504232726 | 68 | 51 | 2.6 | 7.0 | 0.00 | 0.00 | 0.00 | 41 | 1009.4 |
| 20260504232201 | 69 | 61 | 2.6 | 7.8 | 0.00 | 0.00 | 0.00 | 41 | 1009.4 |
| 20260504231635 | 69 | 58 | 3.5 | 10.4 | 0.00 | 0.00 | 0.00 | 40 | 1009.4 |
| 20260504231114 | 69 | 91 | 3.5 | 10.4 | 0.00 | 0.00 | 0.00 | 40 | 1009.4 |
| 20260504230557 | 69 | 58 | 3.5 | 8.7 | 0.00 | 0.00 | 0.00 | 40 | 1009.3 |
| 20260504230057 | 69 | 45 | 3.5 | 9.6 | 0.00 | 0.00 | 0.00 | 40 | 1009.3 |
| 20260504225559 | 69 | 63 | 3.5 | 9.6 | 0.00 | 0.00 | 0.00 | 39 | 1009.3 |
| 20260504225101 | 70 | 41 | 4.3 | 13.9 | 0.00 | 0.00 | 0.00 | 40 | 1009.3 |
| 20260504224531 | 70 | 56 | 4.3 | 13.9 | 0.00 | 0.00 | 0.00 | 39 | 1009.3 |
| 20260504224507 | 70 | 49 | 4.3 | 9.6 | 0.00 | 0.00 | 0.00 | 39 | 1009.3 |
| 20260504223501 | 70 | 65 | 4.3 | 9.6 | 0.00 | 0.00 | 0.00 | 39 | 1009.3 |
| 20260504223230 | 70 | 38 | 4.3 | 9.6 | 0.00 | 0.00 | 0.00 | 38 | 1009.3 |
| 20260504222429 | 71 | 90 | 4.3 | 11.3 | 0.00 | 0.00 | 0.00 | 38 | 1009.3 |
| 20260504222156 | 71 | 54 | 4.3 | 11.3 | 0.00 | 0.00 | 0.00 | 39 | 1009.3 |
| 20260504221425 | 71 | 70 | 3.5 | 8.7 | 0.00 | 0.00 | 0.00 | 39 | 1009.3 |
| 20260504220858 | 71 | 82 | 4.3 | 13.9 | 0.00 | 0.00 | 0.00 | 37 | 1009.3 |
| 20260504220349 | 71 | 59 | 4.3 | 13.9 | 0.00 | 0.00 | 0.00 | 38 | 1009.4 |
| 20260504215852 | 71 | 37 | 3.5 | 8.7 | 0.00 | 0.00 | 0.00 | 38 | 1009.4 |
| 20260504215617 | 71 | 67 | 4.3 | 12.2 | 0.00 | 0.00 | 0.00 | 36 | 1009.4 |
| 20260504214848 | 71 | 84 | 5.2 | 12.2 | 0.00 | 0.00 | 0.00 | 36 | 1009.5 |
| 20260504214346 | 72 | 64 | 5.2 | 11.3 | 0.00 | 0.00 | 0.00 | 38 | 1009.6 |
| 20260504213846 | 72 | 29 | 4.3 | 10.4 | 0.00 | 0.00 | 0.00 | 37 | 1009.5 |
| 20260504213617 | 72 | 53 | 3.5 | 7.8 | 0.00 | 0.00 | 0.00 | 37 | 1009.5 |
| 20260504212846 | 72 | 69 | 3.5 | 7.8 | 0.00 | 0.00 | 0.00 | 37 | 1009.6 |
| 20260504212319 | 72 | 77 | 4.3 | 9.6 | 0.00 | 0.00 | 0.00 | 37 | 1009.5 |
| 20260504211817 | 72 | 62 | 5.2 | 12.2 | 0.00 | 0.00 | 0.00 | 38 | 1009.6 |
| 20260504211321 | 72 | 93 | 5.2 | 12.2 | 0.00 | 0.00 | 0.00 | 37 | 1009.5 |
| 20260504210817 | 72 | 88 | 5.2 | 14.8 | 0.00 | 0.00 | 0.00 | 36 | 1009.6 |
| 20260504210318 | 72 | 39 | 5.2 | 14.8 | 0.00 | 0.00 | 0.00 | 36 | 1009.7 |
| 20260504210025 | 72 | 83 | 4.3 | 9.6 | 0.00 | 0.00 | 0.00 | 37 | 1009.7 |
| 20260504205252 | 72 | 79 | 4.3 | 7.0 | 0.00 | 0.00 | 0.00 | 37 | 1009.7 |
| 20260504205017 | 72 | 84 | 5.2 | 13.9 | 0.00 | 0.00 | 0.00 | 37 | 1009.7 |
| 20260504204243 | 71 | 65 | 5.2 | 13.9 | 0.00 | 0.00 | 0.00 | 37 | 1009.8 |
| 20260504203744 | 72 | 29 | 4.3 | 12.2 | 0.00 | 0.00 | 0.00 | 37 | 1009.7 |
| 20260504203513 | 72 | 89 | 4.3 | 10.4 | 0.00 | 0.00 | 0.00 | 38 | 1009.7 |
| 20260504203016 | 72 | 84 | 3.5 | 10.4 | 0.00 | 0.00 | 0.00 | 37 | 1009.7 |
| 20260504202213 | 72 | 47 | 3.5 | 10.4 | 0.00 | 0.00 | 0.00 | 38 | 1009.6 |
| 20260504201717 | 72 | 68 | 5.2 | 14.8 | 0.00 | 0.00 | 0.00 | 37 | 1009.8 |
| 20260504201440 | 72 | 89 | 4.3 | 14.8 | 0.00 | 0.00 | 0.00 | 37 | 1009.8 |
| 20260504200701 | 72 | 68 | 4.3 | 12.2 | 0.00 | 0.00 | 0.00 | 37 | 1009.8 |
| 20260504200159 | 72 | 70 | 5.2 | 12.2 | 0.00 | 0.00 | 0.00 | 35 | 1009.9 |
| 20260504195905 | 72 | 93 | 5.2 | 11.3 | 0.00 | 0.00 | 0.00 | 37 | 1010.0 |